TimeCST,TemperatureF,Dew PointF,Humidity,Sea Level PressureIn,VisibilityMPH,Wind Direction,Wind SpeedMPH,Gust SpeedMPH,PrecipitationIn,Events,Conditions,WindDirDegrees,DateUTC
12:15 AM,19.4,14.0,80,30.16,3.0,North,9.2,-,N/A,,Overcast,10,2013-01-01 06:15:00
12:35 AM,19.4,14.0,80,30.16,3.0,North,10.4,-,N/A,,Overcast,360,2013-01-01 06:35:00
12:55 AM,17.6,14.0,86,30.16,3.0,North,9.2,-,N/A,,Overcast,10,2013-01-01 06:55:00
1:15 AM,17.6,12.2,79,30.16,5.0,North,9.2,-,N/A,,Overcast,360,2013-01-01 07:15:00
1:35 AM,17.6,14.0,86,30.16,5.0,North,11.5,-,N/A,,Overcast,360,2013-01-01 07:35:00
2:15 AM,17.6,12.2,79,30.17,4.0,North,11.5,-,N/A,,Overcast,10,2013-01-01 08:15:00
2:35 AM,17.6,12.2,79,30.18,3.0,North,9.2,-,N/A,,Overcast,360,2013-01-01 08:35:00
3:15 AM,17.6,12.2,79,30.18,7.0,North,10.4,-,N/A,,Mostly Cloudy,360,2013-01-01 09:15:00
3:35 AM,17.6,12.2,79,30.16,7.0,North,10.4,-,N/A,,Mostly Cloudy,360,2013-01-01 09:35:00
4:15 AM,17.6,12.2,79,30.16,7.0,North,13.8,-,N/A,,Overcast,360,2013-01-01 10:15:00
4:35 AM,17.6,12.2,79,30.17,10.0,North,11.5,-,N/A,,Overcast,10,2013-01-01 10:35:00
5:15 AM,17.6,12.2,79,30.20,10.0,NNE,11.5,-,N/A,,Overcast,20,2013-01-01 11:15:00
5:35 AM,17.6,12.2,79,30.20,10.0,NNE,9.2,-,N/A,,Overcast,30,2013-01-01 11:35:00
5:55 AM,17.6,12.2,79,30.20,9.0,NNE,9.2,-,N/A,,Overcast,30,2013-01-01 11:55:00
6:15 AM,17.6,12.2,79,30.21,2.5,NNE,10.4,-,N/A,,Overcast,30,2013-01-01 12:15:00
6:35 AM,17.6,12.2,79,30.21,2.5,NNE,8.1,-,N/A,,Overcast,20,2013-01-01 12:35:00
6:55 AM,17.6,12.2,79,30.22,2.5,NNE,6.9,-,N/A,,Overcast,20,2013-01-01 12:55:00
7:15 AM,17.6,12.2,79,30.23,4.0,NNE,8.1,-,N/A,,Overcast,20,2013-01-01 13:15:00
7:35 AM,17.6,12.2,79,30.24,3.0,NNE,5.8,-,N/A,,Overcast,20,2013-01-01 13:35:00
7:55 AM,17.6,12.2,79,30.24,3.0,NNE,8.1,-,N/A,,Overcast,20,2013-01-01 13:55:00
8:15 AM,15.8,12.2,86,30.24,3.0,North,8.1,-,N/A,,Overcast,10,2013-01-01 14:15:00
8:35 AM,15.8,10.4,79,30.25,6.0,North,6.9,-,N/A,,Overcast,360,2013-01-01 14:35:00
8:55 AM,15.8,12.2,86,30.26,7.0,North,5.8,-,N/A,,Overcast,360,2013-01-01 14:55:00
9:15 AM,17.6,12.2,79,30.26,3.0,North,5.8,-,N/A,,Overcast,350,2013-01-01 15:15:00
9:35 AM,17.6,12.2,79,30.28,2.5,North,6.9,-,N/A,,Overcast,350,2013-01-01 15:35:00
10:15 AM,17.6,12.2,79,30.28,2.0,North,8.1,-,N/A,,Overcast,10,2013-01-01 16:15:00
10:35 AM,17.6,12.2,79,30.29,5.0,North,6.9,-,N/A,,Mostly Cloudy,350,2013-01-01 16:35:00
11:15 AM,19.4,12.2,74,30.30,9.0,North,5.8,-,N/A,,Clear,360,2013-01-01 17:15:00
11:35 AM,19.4,12.2,74,30.29,8.0,NNW,6.9,-,N/A,,Clear,330,2013-01-01 17:35:00
11:55 AM,19.4,12.2,74,30.28,8.0,NW,5.8,-,N/A,,Clear,320,2013-01-01 17:55:00
12:15 PM,19.4,12.2,74,30.29,8.0,NNW,6.9,-,N/A,,Clear,330,2013-01-01 18:15:00
12:35 PM,19.4,12.2,74,30.28,8.0,NNW,5.8,-,N/A,,Partly Cloudy,330,2013-01-01 18:35:00
1:15 PM,21.2,12.2,68,30.27,10.0,WNW,8.1,-,N/A,,Overcast,290,2013-01-01 19:15:00
1:35 PM,21.2,14.0,74,30.26,10.0,NW,8.1,-,N/A,,Overcast,310,2013-01-01 19:35:00
1:55 PM,21.2,12.2,68,30.25,9.0,WNW,8.1,-,N/A,,Overcast,290,2013-01-01 19:55:00
2:15 PM,21.2,14.0,74,30.25,10.0,WNW,6.9,-,N/A,,Overcast,300,2013-01-01 20:15:00
2:35 PM,21.2,14.0,74,30.24,10.0,WNW,6.9,-,N/A,,Scattered Clouds,300,2013-01-01 20:35:00
3:15 PM,23.0,15.8,74,30.24,10.0,WNW,9.2,-,N/A,,Clear,290,2013-01-01 21:15:00
3:35 PM,23.0,15.8,74,30.24,10.0,WNW,6.9,-,N/A,,Clear,290,2013-01-01 21:35:00
4:15 PM,21.2,14.0,74,30.24,10.0,WNW,8.1,-,N/A,,Clear,290,2013-01-01 22:15:00
4:35 PM,19.4,12.2,74,30.24,10.0,West,6.9,-,N/A,,Clear,280,2013-01-01 22:35:00
4:55 PM,17.6,10.4,73,30.23,10.0,WNW,5.8,-,N/A,,Clear,290,2013-01-01 22:55:00
5:15 PM,15.8,8.6,73,30.23,9.0,West,5.8,-,N/A,,Clear,280,2013-01-01 23:15:00
5:35 PM,14.0,8.6,79,30.23,8.0,West,5.8,-,N/A,,Clear,270,2013-01-01 23:35:00
5:55 PM,12.2,6.8,79,30.23,7.0,West,6.9,-,N/A,,Clear,260,2013-01-01 23:55:00
6:15 PM,10.4,6.8,85,30.23,7.0,West,5.8,-,N/A,,Clear,260,2013-01-02 00:15:00
6:35 PM,10.4,6.8,85,30.24,7.0,West,6.9,-,N/A,,Clear,260,2013-01-02 00:35:00
6:55 PM,8.6,3.2,79,30.23,5.0,WSW,6.9,-,N/A,,Clear,240,2013-01-02 00:55:00
7:15 PM,8.6,3.2,79,30.24,5.0,SW,6.9,-,N/A,,Clear,230,2013-01-02 01:15:00
7:35 PM,10.4,6.8,85,30.23,5.0,SW,6.9,-,N/A,,Clear,230,2013-01-02 01:35:00
7:55 PM,6.8,-0.4,72,30.23,3.0,SW,6.9,-,N/A,,Clear,230,2013-01-02 01:55:00
8:15 PM,6.8,1.4,79,30.21,3.0,WSW,6.9,-,N/A,,Clear,250,2013-01-02 02:15:00
8:35 PM,8.6,3.2,79,30.21,6.0,SW,9.2,-,N/A,,Clear,230,2013-01-02 02:35:00
8:55 PM,12.2,10.4,92,30.20,10.0,SW,10.4,-,N/A,,Clear,230,2013-01-02 02:55:00
9:15 PM,12.2,8.6,85,30.20,8.0,WSW,9.2,-,N/A,,Clear,240,2013-01-02 03:15:00
9:35 PM,12.2,8.6,85,30.20,8.0,WSW,9.2,-,N/A,,Clear,240,2013-01-02 03:35:00
9:55 PM,10.4,6.8,85,30.21,8.0,WSW,9.2,-,N/A,,Clear,240,2013-01-02 03:55:00
10:15 PM,12.2,6.8,79,30.22,10.0,WSW,8.1,-,N/A,,Clear,240,2013-01-02 04:15:00
10:35 PM,14.0,10.4,86,30.22,10.0,WSW,10.4,-,N/A,,Clear,240,2013-01-02 04:35:00
10:55 PM,12.2,8.6,85,30.21,10.0,West,10.4,-,N/A,,Clear,260,2013-01-02 04:55:00
11:15 PM,12.2,6.8,79,30.22,10.0,WSW,6.9,-,N/A,,Clear,240,2013-01-02 05:15:00
11:35 PM,12.2,8.6,85,30.24,10.0,WSW,9.2,-,N/A,,Clear,240,2013-01-02 05:35:00
11:55 PM,10.4,6.8,85,30.22,10.0,WSW,6.9,-,N/A,,Partly Cloudy,250,2013-01-02 05:55:00